Jackson, MI

9:27 PM EDT on July 22, 2019 (GMT -0400)
Jackson County-Reynolds

Weather History for KJXN - May, 2019

Change the Weather History Date:

Wednesday, May 29, 2019

  Actual Average Record
Temperature  
Mean Temperature 64 °F 62 °F  
Max Temperature 73 °F 73 °F 92 °F (2018)
Min Temperature 55 °F 51 °F 30 °F (1966)
Degree Days  
Heating Degree Days 1 5  
Month to date heating degree days 238 248  
Since 1 July heating degree days 6635 6594  
Cooling Degree Days 0 2  
Month to date cooling degree days 10 28  
Year to date cooling degree days 10 34  
Growing Degree Days 14 (Base 50)    
Moisture  
Dew Point 59 °F    
Average Humidity 82    
Maximum Humidity 100    
Minimum Humidity 64    
Precipitation  
Precipitation 0.27 in 0.11 in 0.40 in (1974)
Month to date precipitation 3.50 3.09  
Year to date precipitation 11.74 10.38  
Sea Level Pressure  
Sea Level Pressure 29.76 in    
Wind  
Wind Speed 4 mph (NNW)    
Max Wind Speed 13 mph    
Max Gust Speed 21 mph    
Visibility 7 miles    
Events Rain , Thunderstorm    
T = Trace of Precipitation, MM = Missing Value Source: NWS Daily Summary

Daily Weather History Graph

Daily Weather History Graph

Search for Another Location

Airport or City:

Astronomy

May. 29, 2019 Rise Set
Actual Time 6:05 AM EDT 9:05 PM EDT
Civil Twilight 5:32 AM EDT 9:38 PM EDT
Nautical Twilight 4:49 AM EDT 10:21 PM EDT
Astronomical Twilight 3:59 AM EDT 11:12 PM EDT
Moon 3:51 AM EDT (5/29) 4:05 PM EDT (5/29)
Length of Visible Light 16h 06m
Length of Day
14h 59m
Waning Crescent, 23% of the Moon is Illuminated
May 29
Waning Crescent
Jun 3
New
Jun 10
First Quarter
Jun 17
Full
Jun 25
Last Quarter

Hourly Weather History & Observations

Time (EDT) Temp. Dew Point Humidity Pressure Visibility Wind Dir Wind Speed Gust Speed Precip Events Conditions
12:56 AM 57.0 °F 55.0 °F 93% 29.76 in 10.0 mi NNE 6.9 mph - N/A   Overcast
1:29 AM 57.0 °F 54.0 °F 89% 29.80 in 10.0 mi East 4.6 mph - N/A Thunderstorm Overcast
1:44 AM 57.0 °F 54.0 °F 89% 29.85 in 9.0 mi Calm Calm - 0.00 in Rain , Thunderstorm Light Thunderstorms and Rain
1:52 AM 55.4 °F 55.4 °F 100% 29.84 in 1.8 mi NNW 4.6 mph - 0.09 in Rain , Thunderstorm Heavy Thunderstorms and Rain
1:56 AM 55.9 °F 55.0 °F 97% 29.83 in 1.8 mi NNW 4.6 mph - 0.11 in Rain , Thunderstorm Thunderstorms and Rain
2:02 AM 55.9 °F 55.0 °F 97% 29.83 in 3.0 mi NNW 4.6 mph - 0.02 in Rain , Thunderstorm Thunderstorms and Rain
2:07 AM 55.9 °F 55.0 °F 97% 29.82 in 3.0 mi North 6.9 mph - 0.04 in Rain , Thunderstorm Thunderstorms and Rain
2:33 AM 55.0 °F 55.0 °F 100% 29.76 in 4.0 mi ENE 8.1 mph - 0.14 in Rain Light Rain
2:41 AM 55.0 °F 55.0 °F 100% 29.75 in 7.0 mi ENE 6.9 mph - 0.14 in Rain Light Rain
2:46 AM 55.0 °F 55.0 °F 100% 29.77 in 9.0 mi ENE 5.8 mph - 0.14 in   Overcast
2:56 AM 55.9 °F 55.0 °F 97% 29.78 in 10.0 mi Variable 3.5 mph - 0.14 in   Overcast
3:56 AM 55.9 °F 55.0 °F 97% 29.71 in 8.0 mi NE 4.6 mph - N/A   Overcast
4:11 AM 55.9 °F 55.0 °F 97% 29.71 in 8.0 mi East 9.2 mph - N/A   Overcast
4:56 AM 55.9 °F 55.9 °F 100% 29.71 in 7.0 mi Calm Calm - N/A   Overcast
5:56 AM 57.0 °F 55.9 °F 96% 29.77 in 6.0 mi NW 5.8 mph - N/A   Overcast
6:26 AM 55.9 °F 55.9 °F 100% 29.75 in 2.0 mi SE 4.6 mph - N/A   Overcast
6:38 AM 57.0 °F 57.0 °F 100% 29.75 in 1.5 mi SE 4.6 mph - N/A   Overcast
6:53 AM 57.2 °F 57.2 °F 100% 29.73 in 3.0 mi NE 3.5 mph - 0.01 in   Overcast
6:56 AM 57.0 °F 57.0 °F 100% 29.73 in 3.0 mi East 3.5 mph - 0.01 in   Overcast
7:56 AM 59.0 °F 57.9 °F 96% 29.75 in 5.0 mi Calm Calm - N/A   Overcast
8:34 AM 59.0 °F 57.9 °F 96% 29.77 in 2.5 mi WNW 5.8 mph - N/A   Overcast
8:43 AM 59.0 °F 59.0 °F 100% 29.76 in 1.2 mi Calm Calm - 0.01 in Rain Light Rain
8:53 AM 59.0 °F 59.0 °F 100% 29.76 in 3.0 mi Calm Calm - 0.01 in   Overcast
8:56 AM 59.0 °F 57.9 °F 96% 29.75 in 4.0 mi Calm Calm - 0.01 in   Overcast
9:56 AM 63.0 °F 61.0 °F 93% 29.70 in 7.0 mi East 5.8 mph - N/A   Overcast
10:13 AM 63.0 °F 61.0 °F 93% 29.72 in 8.0 mi SSE 4.6 mph - N/A   Overcast
10:56 AM 66.0 °F 63.0 °F 90% 29.70 in 10.0 mi SE 5.8 mph - N/A   Mostly Cloudy
11:17 AM 68.0 °F 63.0 °F 84% 29.73 in 10.0 mi Variable 4.6 mph - N/A   Mostly Cloudy
11:56 AM 66.9 °F 63.0 °F 87% 29.75 in 10.0 mi NW 8.1 mph - N/A   Overcast
12:11 PM 66.0 °F 62.1 °F 87% 29.76 in 10.0 mi NNW 11.5 mph - N/A   Overcast
12:56 PM 64.0 °F 61.0 °F 90% 29.76 in 8.0 mi WNW 5.8 mph - N/A   Overcast
1:52 PM 68.0 °F 62.6 °F 83% 29.76 in 10.0 mi West 9.2 mph - N/A   Mostly Cloudy
1:53 PM 68.0 °F 62.6 °F 83% 29.76 in 10.0 mi West 8.1 mph - N/A   Mostly Cloudy
1:56 PM 68.0 °F 63.0 °F 84% 29.76 in 10.0 mi West 6.9 mph - N/A   Mostly Cloudy
2:03 PM 69.1 °F 63.0 °F 81% 29.76 in 10.0 mi West 9.2 mph - N/A   Mostly Cloudy
2:18 PM 69.1 °F 63.0 °F 81% 29.75 in 10.0 mi West 6.9 mph - N/A   Mostly Cloudy
2:56 PM 69.1 °F 62.1 °F 78% 29.75 in 10.0 mi WNW 10.4 mph - N/A   Mostly Cloudy
3:56 PM 69.1 °F 61.0 °F 75% 29.74 in 10.0 mi WNW 8.1 mph - N/A   Overcast
4:25 PM 72.0 °F 62.1 °F 71% 29.74 in 10.0 mi North - - N/A   Mostly Cloudy
4:56 PM 72.0 °F 61.0 °F 68% 29.73 in 10.0 mi WNW 8.1 mph - N/A   Scattered Clouds
5:56 PM 73.0 °F 61.0 °F 66% 29.73 in 10.0 mi NW 8.1 mph - N/A   Partly Cloudy
6:56 PM 72.0 °F 61.0 °F 68% 29.75 in 10.0 mi WSW 6.9 mph - N/A   Clear
7:56 PM 70.0 °F 61.0 °F 73% 29.74 in 10.0 mi Calm Calm - N/A   Clear
8:56 PM 66.9 °F 61.0 °F 81% 29.76 in 10.0 mi Calm Calm - N/A   Scattered Clouds
9:56 PM 64.0 °F 61.0 °F 90% 29.77 in 10.0 mi Calm Calm - N/A   Clear
10:56 PM 62.1 °F 60.1 °F 93% 29.80 in 10.0 mi Calm Calm - N/A   Clear
11:56 PM 60.1 °F 59.0 °F 96% 29.79 in 10.0 mi South 3.5 mph - N/A   Clear